Timeline UpdatesTrip UpdatesNews PostsPvt PostsTravel TipsAdmin PostsConv PostsFollowed PostsChat RequestsBlog PostsPNR Posts

Disclaimer
Search
 
 
Wed Jul 23, 2014 09:03:08 ISTHomeTrainsΣChainsAtlasPNRForumGalleryNewsFAQTripsMembersLoginFeedback
No Recent News for this Train
Other Trains in the News **new
Latest...
⇐ Return Journey: Train# 59208

59207/Bhavnagar Okha Passenger

Feb 22 2014 (11:41PM)
Change Departure Station:
Change Arrival Station:
Post a Train Travel TipPost a Train Travel Tip **new
Post a Comment/Question/Picture/VideoPost a Comment/Question/Picture/Video
Pantry/Catering
✕ NO Pantry Car
✕ NO Catering
RSA - Rake Sharing
59267/59268 Bhavnagar-Palitana Passenger; RSA 09201/09202; BVC-SUNR(Triweekly) PASS.
Rake/Coach Composition
ENG.SLR.GEN.GEN.S1.S2.GEN.GEN.SLR(RMS).; By Darshan Chauhan Entry# 684153
Loco
LOCO RTM WDM 3A.
News    PNR    Forum    Time-Table    Availability    Fare Chart    Map    Arr/Dep History    Trips    Gallery    ΣChains    X/O    Timeline    
Travel Time: 7h 38m    29 halts    Distance: 256 km    Avg Speed: 33 km/hr
Type: Passenger
Zone: WR/Western
Departs @ 21:25
Platform# 1
SMTWTFS
Bhavnagar Terminus/BVC 
Arrives @ 05:03 +1 night
Platform# ???
SMTWTFS
Sindhawadar/SDD 

29 halts. 36 intermediate Stations between Bhavnagar Terminus and Sindhawadar

Show ALL intermediate Stations  Show Old Time-Table

#CodeStation NameX/OArrivesAvgDepartsAvgHaltPFDay#KmSpeedElevZoneAddress
1BVC»Bhavnagar Terminus (2)»  -21:25-110.03311mWRBhavnagar, Gujarat
2BVPBhavnagar Para  21:30-21:31-1m--12.74313mWRBhavnagar, Gujarat
3VTJVartej  21:41-21:42-1m--19.94524mWRBhavnagar, Gujarat
4KDMRKodiyar Mandir  21:49-21:50-1m--115.24592mWRSH 21, Gujarat
5SOJNSihor Gujarat  21:57-21:58-1m--120.45042mWRShihor, Gujarat
6SGDSongadh (1)  22:07-22:08-1m1127.95240mWRBhavnagar, Gujarat
7BJUDBajudX  22:15-22:16-1m--134.02937mWRState Highway 31, Gujarat
8SOASanosra  22:25-22:26-1m1138.36636mWRState Highway 25, Gujarat
9DLJDhola Junction  22:36-22:37-1m1149.36137mWRDhola, Gujarat
10UJUjalvav  22:47-22:48-1m--159.55064mWRState Highway 31, Gujarat
11ALMRAlampur  22:56-22:57-1m--166.26459mWRState Highway 31, Gujarat
12NGANingala Junction  23:04-23:05-1m--173.75657mWRState Highway 117, Gujarat
13LTDLathidad  23:13-23:14-1m--181.24768mWRTajpar Rd, Gujarat
14BTDBotad Junction (5)  23:28-23:30-2m1192.26896mWRBotad, Gujarat
15KDIKundli  23:40-23:41-1m--1103.76586mWRState Highway 38, Gujarat
16RURRanpur  23:51-23:52-1m--1114.46561mWRRanpur, Gujarat
17CDAChuda  00:07-00:08-1m--2130.76063mWRState Highway 38, Gujarat
18LMLimbdi (1)  00:18-00:19-1m12140.83651mWRLimbdi, Gujarat
19WCWadhwan City  00:53-00:54-1m--2161.13667mWRSurendranagar, Gujarat
20JVNJorawarnagar Junction (1)  01:00-01:01-1m12164.62869mWRSurendra Nagar, Gujarat
21SRGTSurendranagar Gate (1)  01:07-01:08-1m12167.4871mWRSurendranagar, Gujarat
22SUNRSurendranagar Junction (4)X  01:25-01:40-15m12169.63672mWRSurendra Nagar, Gujarat
23DXRDigsar  02:03-02:04-1m--2183.348100mWRState Highway 17, Gujarat
24MOLMuli Road  02:14-02:15-1m12191.350108mWRSurendranagar, Gujarat
25RARampardaX  02:26-02:27-1m--2200.520141mWRSurendranagar, Gujarat
26VDVagdiya  02:46-02:47-1m--2206.952149mWRState Highway 113, Gujarat
27THANThan Junction (3)  02:59-03:01-2m12217.357138mWRThangadh, Gujarat
28DLDaladi  03:16-03:17-1m--2231.441115mWRDaladi, Gujarat
29WKRWankaner Junction (4)XO  03:35-04:43-68m--2243.94087mWRWankaner, Gujarat
30AXAAmarsar  04:54-04:55-1m--2251.239113mWRRajkot, Gujarat
31SDD•Sindhawadar•  05:03-05:04-1m--2256.434105mWRSindhavadar, Gujarat
32KNKTKanakotX  05:16-05:18-2m--2263.147133mWRState Highway 113, Gujarat
33KHCKhoranaX  05:33-05:34-1m--2274.931131mWRState Highway 113, Gujarat
34RJTRajkot Junction (5)XO  05:55-07:05-70m32285.654128mWRRajkot, Gujarat
35KHDIKhanderi  07:17-07:18-1m--2296.460111mWRRajkot, Gujarat
36PDHPadadhari  07:32-07:33-1m--2310.44671mWRPaddhari, Gujarat
37CXChanol  07:42-07:43-1m--2317.34889mWRState Highway 25, Gujarat
38HMHadmatiya Junction  07:52-07:53-1m--2324.46770mWRHadmatiya Junction Railway Station, Gujarat
39JALDJaliya DevaniX  08:00-08:01-1m--2332.34250mWRRanuja Village Rd, Gujarat
40WTJJam Wanthali  08:12-08:13-1m--2339.95952mWRRanuja Village Rd, Gujarat
41ALBAlia Bada  08:25-08:26-1m--2351.64227mWRJamnagar, Gujarat
42HAPAHapa (3)X  08:40-08:45-5m--2361.54316mWRJamnagar, Gujarat
43JAMJamnagar (2)X  08:57-09:00-3m--2370.25914mWRJamnagar, Gujarat
44LKBLLakhabawalX  09:12-09:13-1m--2382.02721mWRJamnagar, Gujarat
45PPLIPipli  09:34-09:35-1m--2391.53930mWRJamnagar, Gujarat
46KNLSKanalus JunctionX  09:43-09:44-1m--2396.63436mWRJamnagar, Gujarat
47MDPRModpur  10:03-10:04-1m--2407.45647mWRKhambhalia-Lalpur, Gujarat
48SYQSinhan  10:14-10:15-1m--2416.75250mWRSH 6, Gujarat
49KMBLKhambhalia  10:24-10:26-2m--2424.55549mWRKhambhalia, Gujarat
50VQDViramdad  10:34-10:35-1m--2431.96549mWRKhambhalia-Dwarka (SH 6), Gujarat
51BHTLBhatel  10:45-10:46-1m--2442.64735mWRJamnagar, Gujarat
52BPKABhopalka  11:04-11:05-1m--2456.85446mWRJamnagar, Gujarat
53BHTABhatiya  11:16-11:18-2m--2466.86334mWRNational Highway 8E, Gujarat
54KRGAKuranga  11:29-11:30-1m--2478.46312mWRJamnagar, Gujarat
55OKDOkha Madhi  11:38-11:39-1m--2486.71085mWRNH 8E, Gujarat
56GRJAGorinjaX  11:49-11:50-1m--2504.7235mWRKhambhalia-Dwarka (SH 6), Gujarat
57DWKDwarka (2)  12:00-12:01-1m--2508.52514mWRDwarka, Gujarat
58VVAVarvala  12:13-12:14-1m--2513.63114mWRJamnagar, Gujarat
59BMRNBhimranaX  12:36-12:38-2m--2524.8136mWRBhimrana, Gujarat
60MTHPMithapur  12:52-12:53-1m--2527.7213mWRJamnagar, Gujarat
61OKHAOkha (3)  13:20----2537.2-5mWROkha, Gujarat
Scroll to Top
Scroll to Bottom